Lihue, HI

10:20 AM HST on April 19, 2018 (GMT -1000)
Lihue

Weather History for PHLI - July, 2013

Change the Weather History Date:

Wednesday, July 10, 2013

  Actual Average Record
Temperature  
Mean Temperature 78 °F 79 °F  
Max Temperature 83 °F 84 °F 87 °F (1961)
Min Temperature 72 °F 74 °F 68 °F (1979)
Degree Days  
Heating Degree Days 0 0  
Month to date heating degree days 0 0  
Since 1 June heating degree days 0 0  
Since 1 July heating degree days 0 0  
Cooling Degree Days 13 14  
Month to date cooling degree days 105 140  
Year to date cooling degree days 1569 1773  
Since 1 June cooling degree days 487 534  
Growing Degree Days 26 (Base 50)    
Moisture  
Dew Point 70 °F    
Average Humidity 79    
Maximum Humidity 93    
Minimum Humidity 65    
Precipitation  
Precipitation 0.07 in 0.05 in 0.36 in (1981)
Month to date precipitation 0.22 0.54  
Year to date precipitation 15.72 17.99  
Snow  
Snow 0.00 in - - ()
Month to date snowfall 0.0  
Since 1 June snowfall 0.0  
Since 1 July snowfall 0.0  
Snow Depth 0.00 in    
Sea Level Pressure  
Sea Level Pressure 30.18 in    
Wind  
Wind Speed 18 mph (NE)    
Max Wind Speed 28 mph    
Max Gust Speed 32 mph    
Visibility 10 miles    
Events Rain    
T = Trace of Precipitation, MM = Missing Value Source: NWS Daily Summary

Daily Weather History Graph

Daily Weather History Graph

Search for Another Location

Airport or City:

Astronomy

Jul. 10, 2013 Rise Set
Actual Time 6:01 AM HST 7:24 PM HST
Civil Twilight 5:36 AM HST 7:49 PM HST
Nautical Twilight 5:06 AM HST 8:18 PM HST
Astronomical Twilight 4:36 AM HST 8:49 PM HST
Moon 8:10 AM HST (7/10) 9:06 PM HST (7/10)
Length of Visible Light 14h 12m
Length of Day
13h 23m
Waxing Crescent, 6% of the Moon is Illuminated
Jul 10
Waxing Crescent
Jul 15
First Quarter
Jul 22
Full
Jul 29
Last Quarter
Aug 6
New

Hourly Weather History & Observations

Time (HST) Temp. Heat Index Dew Point Humidity Pressure Visibility Wind Dir Wind Speed Gust Speed Precip Events Conditions
12:53 AM 75.9 °F - 71.1 °F 85% 30.18 in 10.0 mi ENE 17.3 mph - N/A   Overcast
1:12 AM 75.2 °F - 69.8 °F 83% 30.19 in 10.0 mi ENE 16.1 mph - N/A   Scattered Clouds
1:53 AM 75.0 °F - 70.0 °F 84% 30.17 in 10.0 mi ENE 19.6 mph - N/A   Mostly Cloudy
2:33 AM 75.2 °F - 69.8 °F 83% 30.17 in 10.0 mi ENE 20.7 mph 24.2 mph N/A   Mostly Cloudy
2:53 AM 75.0 °F - 70.0 °F 84% 30.16 in 10.0 mi NE 17.3 mph - N/A   Mostly Cloudy
3:12 AM 75.2 °F - 69.8 °F 83% 30.16 in 10.0 mi ENE 18.4 mph - N/A   Overcast
3:44 AM 73.4 °F - 71.6 °F 94% 30.16 in 9.0 mi ENE 18.4 mph - 0.02 in Rain Light Rain
3:53 AM 73.0 °F - 71.1 °F 93% 30.15 in 10.0 mi ENE 16.1 mph - 0.02 in   Overcast
4:53 AM 73.9 °F - 71.1 °F 91% 30.16 in 10.0 mi ENE 20.7 mph 25.3 mph N/A   Overcast
5:53 AM 75.0 °F - 70.0 °F 84% 30.17 in 10.0 mi ENE 18.4 mph - N/A   Mostly Cloudy
6:53 AM 73.9 °F - 71.1 °F 91% 30.18 in 10.0 mi NE 19.6 mph - 0.00 in   Mostly Cloudy
7:28 AM 75.2 °F - 71.6 °F 89% 30.20 in 10.0 mi NE 19.6 mph 25.3 mph N/A   Overcast
7:53 AM 73.0 °F - 71.1 °F 93% 30.19 in 9.0 mi NE 17.3 mph - 0.03 in Rain Light Rain
8:02 AM 73.4 °F - 71.6 °F 94% 30.20 in 8.0 mi NE 24.2 mph 32.2 mph 0.01 in Rain Light Rain
8:15 AM 73.4 °F - 71.6 °F 94% 30.20 in 10.0 mi ENE 24.2 mph 31.1 mph 0.01 in   Mostly Cloudy
8:53 AM 75.0 °F - 71.1 °F 87% 30.20 in 10.0 mi East 21.9 mph 27.6 mph 0.01 in   Overcast
9:05 AM 71.6 °F - 71.6 °F 100% 30.21 in 3.0 mi ENE 18.4 mph 29.9 mph 0.01 in Rain Light Rain
9:24 AM 73.4 °F - 73.4 °F 100% 30.21 in 10.0 mi NE 17.3 mph - 0.01 in   Overcast
9:53 AM 78.1 °F - 73.0 °F 84% 30.20 in 10.0 mi ENE 16.1 mph - 0.01 in   Mostly Cloudy
10:53 AM 79.0 °F - 71.1 °F 77% 30.20 in 10.0 mi ENE 17.3 mph - N/A   Mostly Cloudy
11:15 AM 78.8 °F - 69.8 °F 74% 30.21 in 10.0 mi ENE 16.1 mph - 0.00 in   Overcast
11:53 AM 80.1 °F 83.2 °F 70.0 °F 71% 30.19 in 10.0 mi ENE 15.0 mph 21.9 mph 0.00 in   Overcast
12:53 PM 82.9 °F 86.5 °F 69.1 °F 63% 30.18 in 10.0 mi ENE 16.1 mph - N/A   Partly Cloudy
1:53 PM 81.0 °F 84.4 °F 70.0 °F 69% 30.18 in 10.0 mi NE 16.1 mph - N/A   Mostly Cloudy
2:53 PM 81.0 °F 84.1 °F 69.1 °F 67% 30.17 in 10.0 mi NE 18.4 mph - N/A   Partly Cloudy
3:53 PM 81.0 °F 84.1 °F 69.1 °F 67% 30.15 in 10.0 mi NE 17.3 mph - N/A   Partly Cloudy
4:53 PM 80.1 °F 82.9 °F 69.1 °F 69% 30.14 in 10.0 mi NE 18.4 mph - N/A   Partly Cloudy
5:53 PM 75.9 °F - 70.0 °F 82% 30.14 in 10.0 mi NE 20.7 mph - N/A   Overcast
6:53 PM 75.9 °F - 68.0 °F 76% 30.15 in 10.0 mi ENE 18.4 mph - N/A   Mostly Cloudy
7:27 PM 75.2 °F - 69.8 °F 83% 30.16 in 10.0 mi NE 18.4 mph - 0.00 in Rain Light Rain
7:37 PM 75.2 °F - 69.8 °F 83% 30.16 in 10.0 mi NE 20.7 mph - 0.00 in   Mostly Cloudy
7:53 PM 75.0 °F - 69.1 °F 82% 30.16 in 10.0 mi NE 20.7 mph - 0.00 in   Mostly Cloudy
8:39 PM 75.2 °F - 69.8 °F 83% 30.17 in 10.0 mi NE 24.2 mph - N/A   Overcast
8:53 PM 75.0 °F - 69.1 °F 82% 30.17 in 10.0 mi NE 20.7 mph - 0.00 in   Overcast
9:53 PM 73.9 °F - 69.1 °F 85% 30.18 in 10.0 mi NE 19.6 mph - 0.01 in   Mostly Cloudy
10:53 PM 73.9 °F - 68.0 °F 82% 30.18 in 10.0 mi ENE 23.0 mph - 0.00 in   Partly Cloudy
11:53 PM 75.0 °F - 68.0 °F 79% 30.17 in 10.0 mi ENE 23.0 mph 32.2 mph N/A   Mostly Cloudy